FW5335 Weather Reports


time (UTC)temp
C
wind
direction
speed
KPH
gust
KPH
rain 1hr
cm
rain 24hr
cm
rain mn
cm
humidity
%
barometer
mb
20260506155520 15 135 3.2 6.4 0.00 0.00 0.00 51 1014.3
20260506154520 15 135 3.2 8.0 0.00 0.00 0.00 52 1014.3
20260506153520 15 45 3.2 11.3 0.00 0.00 0.00 55 1014.4
20260506152539 15 135 4.8 8.0 0.00 0.00 0.00 52 1014.3
20260506151520 15 68 3.2 6.4 0.00 0.00 0.00 52 1014.3
20260506150521 15 0 4.8 8.0 0.00 0.00 0.00 52 1014.4
20260506145524 15 68 4.8 9.7 0.00 0.00 0.00 51 1014.5
20260506144519 15 90 3.2 11.3 0.00 0.00 0.00 51 1014.6
20260506143520 16 113 3.2 9.7 0.00 0.00 0.00 48 1014.5
20260506142520 16 0 3.2 8.0 0.00 0.00 0.00 53 1014.6
20260506141539 16 135 3.2 9.7 0.00 0.00 0.00 51 1014.6
20260506140520 15 203 4.8 9.7 0.00 0.00 0.00 51 1014.6
20260506135540 15 158 4.8 11.3 0.00 0.00 0.00 49 1014.9
20260506134519 16 68 4.8 11.3 0.00 0.00 0.00 51 1014.9
20260506133519 16 90 4.8 12.9 0.00 0.00 0.00 50 1015.1
20260506132519 16 68 3.2 8.0 0.00 0.00 0.00 52 1014.9
20260506131539 15 90 4.8 11.3 0.00 0.00 0.00 56 1015.0
20260506130520 15 45 3.2 9.7 0.00 0.00 0.00 57 1015.1
20260506125520 15 68 4.8 12.9 0.00 0.00 0.00 56 1015.1
20260506124524 14 135 3.2 6.4 0.00 0.00 0.00 54 1015.2
20260506123520 14 113 6.4 12.9 0.00 0.00 0.00 54 1015.1
20260506122519 13 180 3.2 8.0 0.00 0.00 0.00 58 1015.0
20260506121519 13 45 4.8 9.7 0.00 0.00 0.00 55 1014.9
20260506120518 13 90 4.8 14.5 0.00 0.00 0.00 56 1015.0
20260506115519 13 68 6.4 11.3 0.00 0.00 0.00 60 1015.0
20260506114519 13 68 4.8 11.3 0.00 0.00 0.00 61 1015.1
20260506113520 13 90 4.8 14.5 0.00 0.00 0.00 61 1015.1
20260506112538 13 23 4.8 11.3 0.00 0.00 0.00 61 1015.4
20260506111520 13 113 3.2 6.4 0.00 0.00 0.00 60 1015.3
20260506110539 13 23 4.8 11.3 0.00 0.00 0.00 60 1015.4
20260506105519 13 23 4.8 8.0 0.00 0.00 0.00 61 1015.4
20260506061521 10 68 6.4 16.1 0.00 0.00 0.00 80 1014.1
20260506060559 10 68 6.4 12.9 0.00 0.00 0.00 80 1014.1
20260506050518 10 68 3.2 6.4 0.00 0.00 0.00 80 1014.0
20260506044519 10 68 6.4 12.9 0.00 0.00 0.00 79 1013.9
20260506043519 10 68 3.2 12.9 0.00 0.00 0.00 79 1013.9
20260506042523 10 68 4.8 9.7 0.00 0.00 0.00 79 1013.8
20260506041518 10 68 1.6 6.4 0.00 0.00 0.00 79 1013.7
20260506040519 10 68 3.2 6.4 0.00 0.00 0.00 79 1013.7
20260506035539 10 68 3.2 6.4 0.00 0.00 0.00 78 1013.6
20260506034518 10 23 3.2 8.0 0.00 0.00 0.00 78 1013.7
20260506033517 10 45 3.2 6.4 0.00 0.00 0.00 78 1013.8
20260506032528 10 23 3.2 6.4 0.00 0.00 0.00 78 1013.7
20260506031524 10 45 3.2 11.3 0.00 0.00 0.00 78 1013.7
20260506030521 10 23 3.2 8.0 0.00 0.00 0.00 78 1013.8
20260506025518 10 23 3.2 8.0 0.00 0.00 0.00 77 1013.8
20260506024525 10 23 1.6 6.4 0.00 0.00 0.00 77 1013.7
20260506023517 10 23 4.8 11.3 0.00 0.00 0.00 77 1013.6
20260506022517 10 23 3.2 6.4 0.00 0.00 0.00 77 1013.7
20260506021518 10 23 4.8 12.9 0.00 0.00 0.00 77 1013.7
20260506020533 10 23 4.8 11.3 0.00 0.00 0.00 77 1013.7
20260506015540 10 23 3.2 6.4 0.00 0.00 0.00 77 1013.7
20260506014518 10 0 3.2 6.4 0.00 0.00 0.00 76 1013.7
20260506013519 10 45 4.8 12.9 0.00 0.00 0.00 76 1013.8
20260506012517 10 0 4.8 11.3 0.00 0.00 0.00 76 1013.9
20260506011527 10 0 3.2 8.0 0.00 0.00 0.00 76 1013.9
20260506010541 10 315 1.6 6.4 0.00 0.00 0.00 76 1014.0
20260506005520 10 315 3.2 6.4 0.00 0.00 0.00 75 1014.2
20260506004523 10 23 3.2 6.4 0.00 0.00 0.00 76 1014.2
20260506003518 10 23 3.2 4.8 0.00 0.00 0.00 75 1014.2
20260506002518 10 338 3.2 9.7 0.00 0.00 0.00 75 1014.1
20260506001518 10 23 4.8 12.9 0.00 0.00 0.00 75 1014.2
20260506000518 10 23 1.6 4.8 0.00 0.00 0.00 75 1014.2
20260505235518 10 23 3.2 6.4 0.00 0.00 0.00 75 1014.1
20260505234518 10 315 1.6 6.4 0.00 0.00 0.00 75 1014.2
20260505233518 10 315 1.6 6.4 0.00 0.00 0.00 75 1014.4
20260505232518 10 23 1.6 4.8 0.00 0.00 0.00 74 1014.3
20260505231518 10 23 4.8 6.4 0.00 0.00 0.00 74 1014.4
20260505230517 10 0 6.4 9.7 0.00 0.00 0.00 74 1014.5
20260505225538 10 338 3.2 6.4 0.00 0.00 0.00 74 1014.6
20260505224545 11 0 3.2 6.4 0.00 0.00 0.00 74 1014.3
20260505223518 11 0 3.2 9.7 0.00 0.00 0.00 73 1014.4
20260505222547 11 23 4.8 8.0 0.00 0.00 0.00 73 1014.4
20260505221518 11 0 4.8 16.1 0.00 0.00 0.00 73 1014.4
20260505220518 11 45 3.2 8.0 0.00 0.00 0.00 72 1014.5
20260505215518 11 23 1.6 4.8 0.00 0.00 0.00 70 1014.5
20260505214518 11 23 3.2 8.0 0.00 0.00 0.00 70 1014.6
20260505213535 11 23 6.4 12.9 0.00 0.00 0.00 70 1014.5
20260505212518 11 23 8.0 16.1 0.00 0.00 0.00 69 1014.5
20260505211537 11 23 8.0 16.1 0.00 0.00 0.00 68 1014.5
20260505210523 11 23 4.8 14.5 0.00 0.00 0.00 68 1014.5
20260505205523 11 23 9.7 16.1 0.00 0.00 0.00 67 1014.1
20260505204538 12 23 9.7 17.7 0.00 0.00 0.00 67 1014.3
20260505203518 12 23 9.7 14.5 0.00 0.00 0.00 67 1014.3
20260505202519 12 23 6.4 12.9 0.00 0.00 0.00 67 1014.2
20260505201518 12 45 4.8 8.0 0.00 0.00 0.00 67 1014.2
20260505200538 12 23 6.4 14.5 0.00 0.00 0.00 67 1014.3
20260505195517 12 315 4.8 9.7 0.00 0.00 0.00 66 1014.3
20260505194538 12 23 3.2 8.0 0.00 0.00 0.00 65 1013.9
20260505193517 12 0 4.8 6.4 0.00 0.00 0.00 65 1014.0
20260505192518 12 338 6.4 12.9 0.00 0.00 0.00 64 1013.9
20260505191520 12 23 4.8 11.3 0.00 0.00 0.00 64 1014.0
20260505190523 12 315 4.8 11.3 0.00 0.00 0.00 63 1013.9
20260505185520 13 315 4.8 9.7 0.00 0.00 0.00 63 1013.5
20260505184519 13 338 6.4 14.5 0.00 0.00 0.00 62 1013.5
20260505183520 13 23 8.0 16.1 0.00 0.00 0.00 61 1013.6
20260505182520 13 0 11.3 19.3 0.00 0.00 0.00 61 1013.5
20260505181520 13 23 9.7 20.9 0.00 0.00 0.00 60 1013.6
20260505180518 13 23 6.4 16.1 0.00 0.00 0.00 62 1013.7
20260505175519 13 338 9.7 16.1 0.00 0.00 0.00 62 1013.6
20260505174519 13 338 9.7 20.9 0.00 0.00 0.00 62 1013.7
20260505173615 13 23 12.9 27.4 0.00 0.00 0.00 61 1013.7
20260505172520 14 23 9.7 17.7 0.00 0.00 0.00 60 1013.5
20260505171520 14 23 11.3 19.3 0.00 0.00 0.00 59 1013.6
20260505170520 14 23 8.0 20.9 0.00 0.00 0.00 60 1013.9
20260505165519 14 338 8.0 16.1 0.00 0.00 0.00 58 1013.9
20260505164605 15 338 9.7 17.7 0.00 0.00 0.00 57 1013.8
20260505163539 15 338 9.7 17.7 0.00 0.00 0.00 57 1013.9
20260505162519 15 0 9.7 17.7 0.00 0.00 0.00 55 1013.8
20260505161525 15 0 12.9 24.1 0.00 0.00 0.00 53 1013.8
20260505160519 16 23 9.7 19.3 0.00 0.00 0.00 53 1013.9